Location: Frizzleburg
(41.0764°N, 80.4548°W)
Time: 12:44:59
(UTC+00:00)

Cosmos 2016 Rocket - Visible Passes

Search period start: 18 February 2020 00:00
Search period end: 28 February 2020 00:00
Orbit: 946 x 1001 km, 83.0° (Epoch: 17 February)

Date Brightness Start Highest point End Pass type
(mag) Time Alt. Az. Time Alt. Az. Time Alt. Az.
18 Feb 5.2 00:44:13 10° SSW 00:49:57 42° WNW 00:55:44 10° N visible
18 Feb 6.2 09:54:58 10° NNE 09:59:53 24° ENE 10:04:49 10° ESE visible
18 Feb 4.2 11:39:30 10° NNW 11:45:32 53° W 11:51:37 10° SSW visible
18 Feb 4.1 23:23:39 10° SSE 23:29:29 50° E 23:35:21 10° NNE visible
19 Feb 6.2 01:10:19 10° WSW 01:15:07 24° WNW 01:19:57 10° NNW visible
19 Feb 5.3 10:19:09 10° N 10:25:02 41° ENE 10:30:57 10° SE visible
19 Feb 4.0 23:48:09 10° S 23:54:14 90° E 00:00:23 10° N visible
20 Feb 6.9 01:37:43 10° W 01:40:28 13° WNW 01:43:13 10° NW visible
20 Feb 7.0 09:02:17 10° NE 09:03:35 11° ENE 09:04:53 10° ENE visible
20 Feb 4.3 10:43:45 10° N 10:50:02 74° E 10:56:20 10° SSE visible
21 Feb 4.9 00:13:15 10° SSW 00:19:08 51° WNW 00:25:06 10° N visible
21 Feb 6.4 09:24:34 10° NNE 09:29:01 20° ENE 09:33:29 10° ESE visible
21 Feb 4.0 11:08:40 10° NNW 11:14:51 64° W 11:21:05 10° S visible
22 Feb 6.0 00:39:04 10° SW 00:44:15 28° WNW 00:49:28 10° NNW visible
22 Feb 5.6 09:48:34 10° N 09:54:14 35° ENE 09:59:56 10° SE visible
22 Feb 4.6 11:33:55 10° NNW 11:39:31 36° W 11:45:10 10° SSW visible
23 Feb 6.8 01:05:55 10° WSW 01:09:31 16° WNW 01:13:11 10° NNW visible
23 Feb 4.5 10:13:04 10° N 10:19:16 61° E 10:25:32 10° SSE visible
23 Feb 4.6 23:42:21 10° SSW 23:48:21 61° W 23:54:26 10° N visible
24 Feb 6.6 08:54:15 10° NNE 08:58:08 17° ENE 09:01:59 10° ESE visible
24 Feb 3.9 10:37:52 10° N 10:44:10 77° W 10:50:29 10° S visible
25 Feb 5.7 00:07:55 10° SW 00:13:23 34° WNW 00:18:56 10° N visible
25 Feb 5.8 09:18:01 10° NNE 09:23:25 29° ENE 09:28:49 10° SE visible
25 Feb 4.3 11:03:00 10° NNW 11:08:52 43° W 11:14:47 10° SSW visible
26 Feb 6.6 00:34:22 10° WSW 00:38:37 19° WNW 00:42:56 10° NNW visible
26 Feb 4.8 09:42:23 10° N 09:48:31 51° ENE 09:54:40 10° SSE visible
26 Feb 5.0 11:28:33 10° NNW 11:33:25 24° W 11:38:20 10° SW visible
27 Feb 7.2 01:03:11 10° WNW 01:04:04 10° WNW 01:04:56 10° NW visible
27 Feb 6.7 08:24:09 10° NE 08:27:13 14° ENE 08:30:17 10° E visible
27 Feb 4.0 10:07:06 10° N 10:13:26 89° E 10:19:48 10° S visible
27 Feb 5.5 23:36:51 10° SW 23:42:33 41° WNW 23:48:22 10° N visible
